[[{"header":{"parameterUnit":"m.s-1","parameterCategory":1,"la1":30.2991,"la2":30.254,"lo1":-89.0895,"lo2":-89.0444,"dy":0.0017,"dx":0.0017,"nx":28,"ny":28,"refTime":"2024-05-17T21:00:00:Z","depth":0,"parameterNumber":2,"parameterNumberName":"U-component_of_WINDS"},"data":[0,0,0,0,0,0,0,0,0,0,0,0,0,0,0,0,0,0,0,0,0,0,0,0,0,0,0,0,0,0,0,0,0,0,0,0,0,0,0,0,0,0,0,0,0,0,0,0,0,0,0,0,0,0,0,0,0,0,-1.2538,-1.2537,0,-1.2432,-1.2431,-1.2429,-1.2349,-1.2348,-1.2347,-1.2346,-1.2235,-1.2232,-1.223,0,0,0,0,0,0,0,0,0,0,0,0,0,-1.2671,-1.2669,-1.2539,-1.2537,-1.2536,-1.2432,-1.243,-1.2429,-1.2349,-1.2348,-1.2347,-1.2346,-1.2235,-1.2233,-1.223,0,0,0,0,0,0,0,0,0,0,0,0,0,-1.2594,-1.2669,-1.2539,-1.2483,-1.2477,-1.2432,-1.243,-1.2429,-1.2349,-1.2348,-1.2347,-1.2346,-1.2236,-1.2233,-1.2229,-1.223,0,0,-1.2219,-1.2217,0,0,0,0,0,0,0,0,-1.2599,-1.2589,-1.2493,-1.2487,-1.248,-1.2402,-1.2436,-1.2362,-1.2349,-1.2398,-1.2346,-1.2345,-1.2291,-1.2283,-1.2265,-1.2225,-1.222,-1.2219,-1.2217,-1.2215,-1.2214,0,0,0,0,0,0,0,-1.2604,-1.2593,-1.2496,-1.2492,-1.2484,-1.2463,-1.2451,-1.2422,-1.2352,-1.2393,-1.2387,-1.2376,-1.2287,-1.2269,-1.2262,-1.2218,-1.2219,-1.2216,-1.2214,-1.2212,-1.2174,-1.2175,0,0,0,0,0,0,-1.2618,-1.2598,-1.25,-1.2493,-1.2538,-1.2462,-1.2448,-1.2428,-1.2352,-1.2339,-1.2377,-1.2372,-1.2275,-1.2266,-1.2258,-1.2254,-1.2215,-1.2212,-1.221,-1.2173,-1.2174,-1.2175,0,0,0,0,0,0,-1.2621,-1.261,-1.2504,-1.2544,-1.2529,-1.2461,-1.2439,-1.2427,-1.2408,-1.2339,-1.2326,-1.2371,-1.2274,-1.2263,-1.2238,-1.2249,-1.221,-1.2207,-1.2171,-1.2173,-1.2174,-1.2246,0,0,0,0,0,0,-1.2626,-1.2612,-1.2612,-1.2545,-1.2527,-1.2486,-1.244,-1.2426,-1.2403,-1.2396,-1.233,-1.2318,-1.2272,-1.2244,-1.2235,-1.2243,-1.2204,-1.217,-1.2172,-1.2174,-1.2242,-1.225,-1.2256,0,0,0,0,0,-1.2631,-1.2635,-1.2612,-1.2601,-1.2526,-1.2487,-1.2477,-1.2425,-1.2404,-1.2403,-1.2359,-1.232,-1.2249,-1.2242,-1.2231,-1.2239,-1.2169,-1.2171,-1.2174,-1.2239,-1.2248,-1.2256,0,0,0,0,0,0,-1.2704,-1.2625,-1.2599,-1.2582,-1.2542,-1.2474,-1.2471,-1.2436,-1.24,-1.2395,-1.2331,-1.2317,-1.2299,-1.2266,-1.2259,-1.2236,-1.2204,-1.2205,-1.2258,-1.2266,-1.2273,-1.2281,-1.2202,0,0,0,0,0,-1.2718,-1.2695,-1.2627,-1.2618,-1.26,-1.2539,-1.252,-1.2484,-1.2439,-1.2422,-1.2376,-1.2334,-1.2302,-1.2282,-1.2249,-1.2237,-1.2222,-1.2238,-1.2245,-1.2251,-1.2252,-1.2244,-1.225,-1.2183,-1.2183,-1.2183,0,0,-1.2747,-1.2702,-1.269,-1.2632,-1.2597,-1.2573,-1.2525,-1.2502,-1.2483,-1.2418,-1.2392,-1.2357,-1.2306,-1.2288,-1.2278,-1.226,-1.2267,-1.2254,-1.2259,-1.2256,-1.2247,-1.2253,-1.2259,-1.2184,-1.2184,-1.2184,0,0,-1.2788,-1.2751,-1.2741,-1.2707,-1.2655,-1.2614,-1.2612,-1.2549,-1.2524,-1.2497,-1.2448,-1.2425,-1.2371,-1.2337,-1.2313,-1.2343,-1.2306,-1.2334,-1.237,-1.2363,-1.2368,-1.2372,-1.2383,-1.2388,-1.2335,-1.2335,-1.2335,0,-1.2831,-1.2794,-1.2739,-1.2719,-1.2695,-1.2637,-1.2625,-1.2595,-1.2534,-1.2519,-1.25,-1.2433,-1.2394,-1.2368,-1.2375,-1.2357,-1.2353,-1.234,-1.2372,-1.2376,-1.2379,-1.2389,-1.2393,-1.2339,-1.2338,-1.2338,-1.2337,0,-1.2848,-1.2824,-1.2821,-1.2766,-1.2742,-1.2726,-1.2669,-1.2651,-1.2617,-1.2579,-1.2553,-1.2505,-1.2462,-1.2453,-1.2419,-1.2422,-1.2413,-1.2384,-1.2351,-1.239,-1.2398,-1.2401,-1.2344,-1.2343,-1.2342,-1.2341,0,0,-1.2931,-1.2847,-1.2847,-1.2822,-1.2761,-1.274,-1.2722,-1.2681,-1.2667,-1.2627,-1.2611,-1.2568,-1.2541,-1.2514,-1.2475,-1.247,-1.2497,-1.2441,-1.2439,-1.2454,-1.2498,-1.252,-1.2526,-1.2473,-1.2473,-1.2474,-1.2503,0,-1.2962,-1.2928,-1.2879,-1.2861,-1.2837,-1.2782,-1.2766,-1.2727,-1.2691,-1.2666,-1.2626,-1.2597,-1.2564,-1.2547,-1.2539,-1.2496,-1.2505,-1.2493,-1.2456,-1.2456,-1.2471,-1.253,-1.2552,-1.2582,-1.2505,-1.2506,-1.2506,0,-1.2993,-1.2959,-1.2939,-1.2881,-1.2869,-1.2856,-1.2815,-1.2791,-1.2746,-1.272,-1.2691,-1.265,-1.2628,-1.2599,-1.2568,-1.2561,-1.2543,-1.252,-1.252,-1.2514,-1.2483,-1.2525,-1.259,-1.2595,-1.2511,-1.251,-1.251,0,-1.3056,-1.3004,-1.2985,-1.2965,-1.2897,-1.2889,-1.2861,-1.2814,-1.2793,-1.2757,-1.2742,-1.2704,-1.2683,-1.2654,-1.2604,-1.2587,-1.2579,-1.2545,-1.2557,-1.2558,-1.2557,-1.2557,-1.2619,-1.2546,-1.2546,-1.2546,-1.2546,0,-1.3096,-1.3086,-1.3013,-1.3001,-1.2988,-1.2933,-1.2921,-1.2887,-1.2847,-1.2827,-1.2777,-1.276,-1.2695,-1.267,-1.2631,-1.2612,-1.2602,-1.2581,-1.2571,-1.2585,-1.2588,-1.2573,-1.2569,-1.2547,-1.2547,-1.2547,-1.2546,0,-1.3163,-1.3114,-1.309,-1.3028,-1.3012,-1.3006,-1.2952,-1.2939,-1.2901,-1.2878,-1.2869,-1.2809,-1.2777,-1.2725,-1.2678,-1.2651,-1.264,-1.2622,-1.2655,-1.2649,-1.2663,-1.2663,-1.2717,-1.2721,-1.2646,-1.2647,-1.2648,0,-1.3191,-1.3182,-1.312,-1.3105,-1.3078,-1.3053,-1.3031,-1.2976,-1.2956,-1.2905,-1.2898,-1.2863,-1.2831,-1.2784,-1.2736,-1.27,-1.2681,-1.2702,-1.2675,-1.269,-1.2681,-1.2682,-1.2681,-1.2709,-1.271,-1.2711,-1.2711,0,-1.3247,-1.3224,-1.3195,-1.3159,-1.3135,-1.3103,-1.3069,-1.3058,-1.2996,-1.2976,-1.2944,-1.292,-1.2873,-1.2838,-1.2796,-1.2765,-1.2728,-1.2721,-1.2721,-1.2736,-1.2756,-1.2746,-1.2672,-1.2719,-1.2719,-1.2718,-1.2718,-1.2717,-1.3295,-1.3285,-1.3241,-1.3211,-1.318,-1.3149,-1.3134,-1.3095,-1.3068,-1.3026,-1.2995,-1.2965,-1.2921,-1.286,-1.2832,-1.2808,-1.2791,-1.2792,-1.2792,-1.2793,-1.2799,-1.2761,-1.28,-1.28,-1.2799,-1.2799,-1.2799,0,-1.3348,-1.3318,-1.3291,-1.3245,-1.3222,-1.3191,-1.3151,-1.3134,-1.3109,-1.3071,-1.3042,-1.3006,-1.2973,-1.2923,-1.2886,-1.2876,-1.2858,-1.2868,-1.2868,-1.2862,-1.2816,-1.2819,-1.2884,-1.2884,-1.2884,-1.2884,-1.2884,-1.2884,-1.3373,-1.3355,-1.3327,-1.3293,-1.3261,-1.3233,-1.3213,-1.3185,-1.3155,-1.3117,-1.309,-1.3058,-1.3015,-1.2975,-1.2944,-1.293,-1.2919,-1.2934,-1.2915,-1.2873,-1.2865,-1.2858,-1.286,-1.2932,-1.2932,-1.2963,-1.2963,-1.2964]},{"header":{"parameterUnit":"m.s-1","parameterCategory":1,"la1":30.2991,"la2":30.254,"lo1":-89.0895,"lo2":-89.0444,"dy":0.0017,"dx":0.0017,"nx":28,"ny":28,"refTime":"2024-05-17T21:00:00:Z","depth":0,"parameterNumber":3,"parameterNumberName":"V-component_of_WINDS"},"data":[0,0,0,0,0,0,0,0,0,0,0,0,0,0,0,0,0,0,0,0,0,0,0,0,0,0,0,0,0,0,0,0,0,0,0,0,0,0,0,0,0,0,0,0,0,0,0,0,0,0,0,0,0,0,0,0,0,0,0.5709,0.5708,0,0.5693,0.5692,0.5692,0.5693,0.5693,0.5694,0.5694,0.5677,0.5676,0.5675,0,0,0,0,0,0,0,0,0,0,0,0,0,0.5739,0.5738,0.5709,0.5708,0.5708,0.5693,0.5692,0.5692,0.5693,0.5693,0.5694,0.5694,0.5677,0.5676,0.5675,0,0,0,0,0,0,0,0,0,0,0,0,0,0.5724,0.5738,0.5709,0.5707,0.5707,0.5693,0.5692,0.5692,0.5693,0.5693,0.5694,0.5694,0.5677,0.5676,0.5675,0.5662,0,0,0.5672,0.5672,0,0,0,0,0,0,0,0,0.5725,0.5723,0.5707,0.5707,0.5707,0.5695,0.5697,0.5682,0.5693,0.5698,0.5694,0.5694,0.5683,0.5681,0.5677,0.5661,0.566,0.5672,0.5672,0.5671,0.5671,0,0,0,0,0,0,0,0.5726,0.5724,0.5702,0.5707,0.5707,0.5706,0.5705,0.5694,0.5689,0.5698,0.5698,0.5696,0.5682,0.5678,0.5677,0.566,0.5672,0.5671,0.5671,0.567,0.563,0.5629,0,0,0,0,0,0,0.5728,0.5725,0.5703,0.5702,0.5717,0.5706,0.5704,0.5699,0.5689,0.5688,0.5696,0.5696,0.568,0.5678,0.5676,0.5658,0.5671,0.567,0.567,0.563,0.563,0.5629,0,0,0,0,0,0,0.5728,0.5726,0.5703,0.5713,0.571,0.5705,0.5699,0.5698,0.5694,0.5687,0.5686,0.5692,0.568,0.5678,0.5665,0.5658,0.567,0.5669,0.5631,0.563,0.5629,0.5623,0,0,0,0,0,0,0.5729,0.5726,0.5721,0.5713,0.571,0.5693,0.5698,0.5697,0.5692,0.5693,0.5684,0.5683,0.568,0.5667,0.5664,0.5657,0.5668,0.5631,0.5631,0.563,0.5624,0.5623,0.5621,0,0,0,0,0,0.573,0.5721,0.5721,0.5718,0.5704,0.5692,0.5691,0.5688,0.5692,0.5686,0.5682,0.5683,0.5659,0.5665,0.5662,0.5655,0.5632,0.5631,0.563,0.5625,0.5623,0.5621,0,0,0,0,0,0,0.5729,0.572,0.572,0.5708,0.5701,0.5693,0.5686,0.5686,0.5678,0.5679,0.5676,0.5674,0.5661,0.5657,0.5663,0.564,0.5646,0.5644,0.5643,0.5641,0.564,0.5641,0.5667,0,0,0,0,0,0.5727,0.5718,0.5711,0.5701,0.5697,0.5692,0.5687,0.5686,0.5678,0.5675,0.567,0.5663,0.5653,0.5647,0.5639,0.5624,0.5621,0.5617,0.5616,0.5614,0.5613,0.5603,0.56,0.5626,0.5626,0.5626,0,0,0.5723,0.5717,0.5712,0.57,0.5695,0.5685,0.569,0.568,0.5673,0.5674,0.5661,0.5657,0.5648,0.5634,0.5627,0.563,0.5605,0.5613,0.5612,0.5611,0.5601,0.5599,0.5597,0.5625,0.5625,0.5625,0,0,0.571,0.5706,0.5696,0.569,0.5681,0.5678,0.5675,0.5667,0.5664,0.5651,0.5651,0.5642,0.5627,0.562,0.5615,0.5598,0.5598,0.5595,0.5587,0.5577,0.5575,0.5574,0.5566,0.5563,0.5594,0.5594,0.5594,0,0.5706,0.5693,0.5691,0.568,0.5674,0.5675,0.5664,0.5658,0.5647,0.5643,0.5646,0.5625,0.562,0.5603,0.5599,0.5595,0.5591,0.5596,0.5576,0.5574,0.5572,0.5565,0.5562,0.5594,0.5594,0.5594,0.5594,0,0.5688,0.5678,0.5671,0.566,0.5653,0.5643,0.5638,0.5631,0.563,0.5626,0.5612,0.5605,0.5594,0.559,0.5589,0.5572,0.5574,0.5577,0.5582,0.5569,0.5562,0.556,0.5593,0.5593,0.5593,0.5593,0,0,0.5674,0.5661,0.5658,0.5652,0.5642,0.5634,0.5623,0.5612,0.5606,0.5598,0.5587,0.5574,0.5575,0.5569,0.5568,0.5559,0.5544,0.5562,0.5562,0.5558,0.5523,0.552,0.5517,0.5544,0.5544,0.5543,0.5523,0,0.566,0.564,0.5637,0.562,0.561,0.5609,0.5599,0.5591,0.5587,0.5577,0.5572,0.5562,0.5566,0.5562,0.5554,0.5548,0.5537,0.5549,0.5533,0.5533,0.5534,0.5513,0.5511,0.5492,0.552,0.552,0.552,0,0.5641,0.5632,0.5613,0.5602,0.5598,0.5589,0.5578,0.5569,0.5559,0.5557,0.5549,0.5548,0.5535,0.5541,0.5523,0.5531,0.5525,0.5521,0.552,0.5517,0.5525,0.5509,0.5486,0.5482,0.5516,0.5516,0.5516,0,0.5631,0.5614,0.56,0.5595,0.5583,0.5576,0.5571,0.5562,0.5555,0.5545,0.554,0.5528,0.5522,0.5513,0.5508,0.5513,0.5489,0.5496,0.5485,0.5485,0.5479,0.5479,0.5453,0.5477,0.5477,0.5477,0.5477,0,0.5615,0.5603,0.5595,0.5586,0.5573,0.5569,0.5555,0.5549,0.5541,0.553,0.5529,0.5519,0.5514,0.5503,0.5499,0.5483,0.5481,0.5477,0.5476,0.5476,0.5477,0.5471,0.5472,0.5476,0.5477,0.5477,0.5477,0,0.5601,0.5596,0.558,0.5569,0.5566,0.5556,0.5547,0.5538,0.5533,0.5519,0.5516,0.5508,0.5495,0.5489,0.5473,0.547,0.5451,0.5452,0.5454,0.5454,0.5442,0.5443,0.5411,0.5405,0.5434,0.5434,0.5434,0,0.5591,0.5582,0.5569,0.5562,0.5556,0.5544,0.5537,0.5532,0.5524,0.5511,0.5503,0.549,0.5479,0.5457,0.545,0.5437,0.5436,0.5426,0.5434,0.5434,0.5434,0.5434,0.5432,0.5424,0.5423,0.5423,0.5423,0,0.5572,0.5569,0.5559,0.5546,0.5537,0.5527,0.5517,0.5511,0.5504,0.5495,0.5481,0.5472,0.5455,0.5441,0.5427,0.5421,0.542,0.542,0.5417,0.5416,0.5417,0.5415,0.5448,0.5421,0.5421,0.5421,0.5421,0.5422,0.5559,0.555,0.5539,0.5526,0.5518,0.5508,0.5498,0.5492,0.548,0.5465,0.5463,0.5448,0.5437,0.5418,0.5411,0.5398,0.54,0.5396,0.5394,0.5393,0.5391,0.5421,0.5396,0.5396,0.5396,0.5396,0.5396,0,0.5539,0.5531,0.552,0.5505,0.5495,0.5495,0.5484,0.5474,0.5461,0.5451,0.5439,0.5422,0.5408,0.5399,0.5384,0.5375,0.5374,0.5371,0.5371,0.5369,0.5391,0.5394,0.5372,0.5372,0.5372,0.5372,0.5372,0.5372,0.5527,0.5511,0.5506,0.5485,0.5478,0.5462,0.5455,0.5446,0.5437,0.5418,0.5406,0.54,0.539,0.5374,0.536,0.5358,0.5352,0.5348,0.5346,0.5366,0.5368,0.537,0.5374,0.5347,0.5347,0.5325,0.5325,0.5325]}]]